Location: DaltonSkyGazer Observatory
(42.4858°N, 73.1565°W)
Time: 15:12:04
(UTC-04:00)

Helios 1B - Visible Passes

Search period start: 29 May 2016 00:00
Search period end: 08 June 2016 00:00
Orbit: 621 x 625 km, 98.1° (Epoch: 29 May)

Date Brightness Start Highest point End Pass type
(mag) Time Alt. Az. Time Alt. Az. Time Alt. Az.
29 May 4.9 00:12:04 55° ENE 00:12:04 55° ENE 00:16:09 10° N visible
29 May 6.9 01:49:17 13° WNW 01:49:17 13° WNW 01:50:31 10° WNW visible
30 May 4.7 00:30:21 74° N 00:30:21 74° N 00:34:21 10° NNW visible
30 May 6.8 23:11:26 13° ENE 23:12:28 14° ENE 23:14:47 10° NNE visible
31 May 5.0 00:48:39 54° WNW 00:48:39 54° WNW 00:52:24 10° NNW visible
31 May 6.3 23:29:43 20° E 23:30:24 21° ENE 23:33:39 10° NNE visible
01 Jun 5.7 01:06:56 35° WNW 01:06:56 35° WNW 01:10:20 10° NNW visible
01 Jun 5.7 23:48:01 31° E 23:48:22 31° ENE 23:52:13 10° N visible
02 Jun 6.2 01:25:14 23° W 01:25:14 23° W 01:28:03 10° NW visible
03 Jun 5.1 00:06:18 48° ENE 00:06:24 48° ENE 00:10:35 10° N visible
03 Jun 6.7 01:43:31 15° W 01:43:31 15° W 01:45:25 10° NW visible
04 Jun 4.6 00:24:36 75° NE 00:24:36 75° NE 00:28:49 10° N visible
04 Jun 6.9 23:05:40 11° E 23:07:01 13° ENE 23:08:51 10° NE visible
05 Jun 4.7 00:42:53 66° WNW 00:42:53 66° WNW 00:46:55 10° NNW visible
05 Jun 6.5 23:23:58 17° E 23:24:56 19° ENE 23:27:55 10° NNE visible
06 Jun 5.3 01:01:11 41° W 01:01:11 41° W 01:04:54 10° NNW visible
06 Jun 5.9 23:42:16 26° E 23:42:53 27° ENE 23:46:33 10° N visible
07 Jun 6.0 01:19:29 27° W 01:19:29 27° W 01:22:42 10° NW visible
